| time (UTC) | temp F | wind direction | speed knots | gust knots | rain 1hr in | rain 24hr in | rain mn in | humidity % | barometer mb |
| 20260504151018 | 71 | 55 | 2.6 | 6.1 | 0.00 | 0.00 | 0.00 | 57 | 1017.4 |
| 20260504141040 | 69 | 59 | 2.6 | 7.8 | 0.00 | 0.00 | 0.00 | 61 | 1017.5 |
| 20260504081020 | 61 | 214 | 0.9 | 2.6 | 0.00 | 0.00 | 0.00 | 72 | 1018.8 |
| 20260504050020 | 64 | 259 | 0.0 | 1.7 | 0.00 | 0.00 | 0.00 | 74 | 1020.0 |
| 20260504045020 | 65 | 246 | 0.9 | 3.5 | 0.00 | 0.00 | 0.00 | 74 | 1019.7 |
| 20260504044020 | 65 | 272 | 1.7 | 3.5 | 0.00 | 0.00 | 0.00 | 74 | 1019.3 |
| 20260504043020 | 65 | 281 | 0.9 | 2.6 | 0.00 | 0.00 | 0.00 | 73 | 1019.6 |
| 20260504042020 | 66 | 265 | 0.9 | 2.6 | 0.00 | 0.00 | 0.00 | 72 | 1019.6 |
| 20260504041021 | 66 | 254 | 0.9 | 2.6 | 0.00 | 0.00 | 0.00 | 70 | 1019.5 |
| 20260504040020 | 67 | 233 | 0.9 | 2.6 | 0.00 | 0.00 | 0.00 | 69 | 1019.6 |
| 20260504035017 | 67 | 251 | 1.7 | 2.6 | 0.00 | 0.00 | 0.00 | 69 | 1019.4 |
| 20260504034021 | 67 | 232 | 0.9 | 2.6 | 0.00 | 0.00 | 0.00 | 69 | 1019.6 |
| 20260504033021 | 68 | 258 | 0.9 | 2.6 | 0.00 | 0.00 | 0.00 | 68 | 1019.5 |
| 20260504032022 | 68 | 256 | 0.9 | 3.5 | 0.00 | 0.00 | 0.00 | 67 | 1019.5 |
| 20260504031019 | 68 | 255 | 0.9 | 2.6 | 0.00 | 0.00 | 0.00 | 65 | 1019.4 |
| 20260504030018 | 68 | 263 | 0.9 | 3.5 | 0.00 | 0.00 | 0.00 | 65 | 1019.4 |
| 20260504025018 | 67 | 255 | 0.9 | 1.7 | 0.00 | 0.00 | 0.00 | 65 | 1019.6 |
| 20260504024042 | 68 | 217 | 0.9 | 2.6 | 0.00 | 0.00 | 0.00 | 63 | 1019.4 |
| 20260504023019 | 68 | 232 | 0.9 | 2.6 | 0.00 | 0.00 | 0.00 | 63 | 1019.4 |
| 20260504022019 | 68 | 228 | 0.9 | 2.6 | 0.00 | 0.00 | 0.00 | 63 | 1019.4 |
| 20260504021019 | 68 | 261 | 0.9 | 3.5 | 0.00 | 0.00 | 0.00 | 62 | 1019.4 |
| 20260504020019 | 69 | 232 | 0.0 | 1.7 | 0.00 | 0.00 | 0.00 | 61 | 1019.3 |
| 20260504015017 | 69 | 223 | 1.7 | 4.3 | 0.00 | 0.00 | 0.00 | 60 | 1019.1 |
| 20260504014020 | 69 | 227 | 1.7 | 4.3 | 0.00 | 0.00 | 0.00 | 59 | 1018.9 |
| 20260504013020 | 69 | 226 | 2.6 | 5.2 | 0.00 | 0.00 | 0.00 | 59 | 1018.8 |
| 20260504012041 | 69 | 226 | 1.7 | 5.2 | 0.00 | 0.00 | 0.00 | 58 | 1018.7 |
| 20260504011021 | 70 | 228 | 2.6 | 6.1 | 0.00 | 0.00 | 0.00 | 58 | 1018.6 |
| 20260504010020 | 70 | 229 | 1.7 | 7.8 | 0.00 | 0.00 | 0.00 | 58 | 1018.8 |
| 20260504005041 | 70 | 235 | 2.6 | 7.8 | 0.00 | 0.00 | 0.00 | 57 | 1018.5 |
| 20260504004021 | 71 | 224 | 2.6 | 6.1 | 0.00 | 0.00 | 0.00 | 59 | 1018.5 |
| 20260504003018 | 71 | 226 | 3.5 | 7.8 | 0.00 | 0.00 | 0.00 | 57 | 1018.3 |
| 20260504002019 | 71 | 215 | 1.7 | 6.1 | 0.00 | 0.00 | 0.00 | 54 | 1018.5 |
| 20260504001021 | 72 | 207 | 0.9 | 6.1 | 0.00 | 0.00 | 0.00 | 53 | 1018.6 |
| 20260504000021 | 72 | 207 | 0.9 | 3.5 | 0.00 | 0.00 | 0.00 | 51 | 1018.4 |
| 20260503235019 | 72 | 232 | 1.7 | 5.2 | 0.00 | 0.00 | 0.00 | 50 | 1018.2 |
| 20260503234039 | 73 | 215 | 2.6 | 7.0 | 0.00 | 0.00 | 0.00 | 49 | 1018.0 |
| 20260503233019 | 73 | 226 | 3.5 | 6.1 | 0.00 | 0.00 | 0.00 | 48 | 1017.8 |
| 20260503232019 | 73 | 233 | 2.6 | 5.2 | 0.00 | 0.00 | 0.00 | 49 | 1017.8 |
| 20260503231020 | 73 | 207 | 2.6 | 6.1 | 0.00 | 0.00 | 0.00 | 48 | 1017.8 |
| 20260503230020 | 73 | 206 | 2.6 | 7.0 | 0.00 | 0.00 | 0.00 | 48 | 1017.7 |
| 20260503225020 | 73 | 212 | 2.6 | 7.0 | 0.00 | 0.00 | 0.00 | 46 | 1017.6 |
| 20260503224020 | 73 | 214 | 3.5 | 7.8 | 0.00 | 0.00 | 0.00 | 45 | 1017.6 |
| 20260503223040 | 73 | 196 | 4.3 | 7.8 | 0.00 | 0.00 | 0.00 | 46 | 1017.5 |
| 20260503222020 | 73 | 198 | 4.3 | 7.0 | 0.00 | 0.00 | 0.00 | 46 | 1017.6 |
| 20260503221021 | 73 | 169 | 4.3 | 7.8 | 0.00 | 0.00 | 0.00 | 47 | 1017.7 |
| 20260503220018 | 72 | 186 | 4.3 | 9.6 | 0.00 | 0.00 | 0.00 | 45 | 1017.8 |
| 20260503215017 | 72 | 183 | 3.5 | 7.8 | 0.00 | 0.00 | 0.00 | 46 | 1017.7 |
| 20260503214021 | 73 | 223 | 5.2 | 9.6 | 0.00 | 0.00 | 0.00 | 45 | 1017.7 |
| 20260503213038 | 73 | 208 | 3.5 | 7.0 | 0.00 | 0.00 | 0.00 | 45 | 1017.6 |
| 20260503212018 | 73 | 208 | 4.3 | 7.8 | 0.00 | 0.00 | 0.00 | 44 | 1017.7 |
| 20260503211021 | 73 | 235 | 3.5 | 7.8 | 0.00 | 0.00 | 0.00 | 46 | 1017.6 |
| 20260503210042 | 74 | 224 | 2.6 | 6.1 | 0.00 | 0.01 | 0.00 | 45 | 1017.7 |
| 20260503205019 | 74 | 197 | 2.6 | 6.1 | 0.00 | 0.01 | 0.00 | 44 | 1017.7 |
| 20260503204019 | 75 | 255 | 2.6 | 7.0 | 0.00 | 0.01 | 0.00 | 42 | 1017.6 |
| 20260503203019 | 76 | 90 | 2.6 | 7.0 | 0.00 | 0.01 | 0.00 | 38 | 1017.6 |
| 20260503202019 | 76 | 254 | 1.7 | 5.2 | 0.00 | 0.01 | 0.00 | 39 | 1017.5 |
| 20260503201039 | 76 | 292 | 2.6 | 4.3 | 0.00 | 0.01 | 0.00 | 39 | 1017.8 |
| 20260503200019 | 77 | 346 | 2.6 | 7.8 | 0.00 | 0.01 | 0.00 | 40 | 1017.9 |
| 20260503195020 | 77 | 337 | 1.7 | 7.0 | 0.00 | 0.01 | 0.00 | 39 | 1017.8 |
| 20260503194020 | 76 | 336 | 1.7 | 5.2 | 0.00 | 0.01 | 0.00 | 39 | 1017.9 |
| 20260503193020 | 75 | 326 | 2.6 | 6.1 | 0.00 | 0.01 | 0.00 | 39 | 1018.7 |
| 20260503192021 | 75 | 359 | 1.7 | 3.5 | 0.00 | 0.01 | 0.00 | 39 | 1018.3 |
| 20260503191020 | 76 | 316 | 1.7 | 4.3 | 0.00 | 0.01 | 0.00 | 37 | 1018.4 |
| 20260503190020 | 75 | 327 | 1.7 | 4.3 | 0.00 | 0.01 | 0.00 | 39 | 1018.8 |
| 20260503185020 | 76 | 339 | 1.7 | 6.1 | 0.00 | 0.01 | 0.00 | 38 | 1018.7 |
| 20260503184020 | 75 | 337 | 1.7 | 4.3 | 0.00 | 0.01 | 0.00 | 39 | 1018.7 |
| 20260503183021 | 75 | 321 | 2.6 | 6.1 | 0.00 | 0.01 | 0.00 | 40 | 1018.9 |
| 20260503182022 | 75 | 5 | 1.7 | 3.5 | 0.00 | 0.01 | 0.00 | 39 | 1018.8 |
| 20260503181038 | 75 | 342 | 1.7 | 5.2 | 0.00 | 0.01 | 0.00 | 40 | 1019.0 |
| 20260503180018 | 74 | 32 | 1.7 | 5.2 | 0.00 | 0.01 | 0.00 | 40 | 1019.0 |
| 20260503175018 | 75 | 357 | 3.5 | 6.1 | 0.00 | 0.01 | 0.00 | 41 | 1019.1 |
| 20260503174019 | 74 | 357 | 1.7 | 6.1 | 0.00 | 0.01 | 0.00 | 41 | 1019.1 |
| 20260503173019 | 75 | 6 | 1.7 | 5.2 | 0.00 | 0.01 | 0.00 | 41 | 1019.0 |
| 20260503172019 | 74 | 341 | 1.7 | 7.0 | 0.00 | 0.01 | 0.00 | 41 | 1019.2 |
| 20260503171022 | 74 | 338 | 2.6 | 7.0 | 0.00 | 0.01 | 0.00 | 40 | 1019.4 |